Vertical_Velocity
-1 -2 -2 -3 -1 -4 -2 -3 0 -1 -3 2 -3 -2 -4 -3 2 -0 -0 -1 3 -1 1 -0 4 1 2 -1 -2 5 0 -7 -5 1 -7 12 1 -9 -3 -5 -2 0 -2 1 -0
-1 -3 -1 -0 -1 -2 -3 -4 -1 0 0 -4 1 2 -5 -6 -2 6 -1 -1 1 0 3 -2 2 1 1 2 1 -0 -0 -3 0 -0 -5 -4 6 -3 -6 -2 -2 4 -3 1 -2
0 0 0 -4 -1 -0 -2 -2 -4 -3 1 -1 -4 2 1 -5 -4 1 -3 -1 1 1 -0 4 1 -0 0 3 -1 1 -15 11 2 -0 1 -4 -2 -3 -2 -5 3 4 -2 1 -0
-3 1 -2 0 -2 -4 -2 2 -0 -9 -0 0 -2 1 2 -2 -5 2 -1 0 -1 2 3 2 1 1 0 2 3 -1 -4 6 -5 4 -1 -8 -3 0 -1 1 4 3 1 1 -2
-4 -2 -2 1 2 0 -7 -2 3 3 -9 1 -0 -0 3 -3 -6 -0 -5 2 4 0 4 -0 0 4 1 -0 4 -3 1 2 -2 -0 1 -7 -4 5 -5 4 1 1 3 3 -4
2 -2 -0 -2 1 0 2 -6 -2 0 -0 -4 2 2 -2 -14 6 5 -5 3 -0 -0 5 1 2 6 0 0 2 4 -1 -5 -8 -2 4 -4 -2 3 11 6 1 -4 5 1 -1
1 -2 -5 -5 1 -1 -0 0 -3 -7 4 -4 -1 0 -5 -2 7 0 -6 8 -2 3 5 4 1 -2 -2 5 3 -1 -7 -3 7 0 -1 3 -10 -17 20 2 2 -3 2 -1 -2
-3 2 4 -5 -2 -2 -2 3 -4 -4 3 2 -2 -5 -17 6 7 7 -1 -7 4 -1 5 6 1 -3 2 1 1 0 -1 -9 14 4 4 3 -21 15 4 3 1 -3 3 1 -1
-0 -1 0 0 3 -10 -2 -4 -1 -6 3 3 -4 -2 -17 -5 3 -2 5 0 6 -1 1 12 -0 1 5 1 1 1 -8 -5 -4 3 2 2 -13 0 -1 5 2 0 1 4 3
-2 -1 -6 -3 3 -2 -10 -2 -4 -8 -5 5 1 -4 -5 1 4 4 -4 5 10 2 7 0 6 0 -5 2 -18 -5 -6 -2 -8 2 4 1 -6 -9 -1 -7 8 6 -2 1 1
-4 -7 -3 -3 -4 0 -4 2 -0 -13 6 -3 -0 -5 7 3 1 9 4 5 3 0 -5 2 3 -26 2 8 0 3 1 -4 -4 17 2 -2 -3 -3 -3 -8 6 5 2 2 -2
2 -3 -3 -6 -1 -1 -5 -5 -5 -8 -35 15 -1 -18 10 -0 -20 15 -0 1 0 -0 5 6 -12 -15 10 4 1 3 -0 -11 -11 3 5 -1 -12 -2 -8 -7 0 9 3 4 -1
1 -3 -1 -2 -4 1 -2 -5 -3 -3 -6 1 0 3 -2 2 -11 9 3 4 -3 2 2 -5 -1 5 4 3 2 -3 -5 -1 -4 5 12 3 -17 -5 -2 -5 -5 9 5 -2 5
-2 -2 -1 -0 -3 0 -1 -2 -4 -4 -10 -13 5 1 5 -1 -3 2 8 6 5 -5 5 9 5 1 2 1 7 -1 11 2 -0 14 -8 9 -10 -6 -4 -4 -12 -0 10 -1 1
-2 -1 -1 -3 2 -3 1 -1 -1 -3 -1 3 5 5 -3 2 1 5 5 7 5 4 -0 -2 -2 4 4 -8 17 -38 9 5 9 1 14 -7 8 -21 -3 -8 -13 0 5 5 1
-2 -1 -1 -3 -1 -3 -1 2 1 -4 -17 5 -4 3 2 -1 4 -2 0 2 5 7 7 4 2 1 -4 2 6 9 -1 6 3 5 6 -12 8 -10 -2 -6 -5 5 0 4 -3
-1 -1 -3 -2 3 -3 0 4 -0 0 6 4 1 -1 3 1 -0 2 2 2 5 0 -4 4 -1 2 3 2 6 11 9 -1 -1 4 -6 -2 7 -23 -7 -6 -3 -2 8 5 1
0 -3 -1 3 0 -0 -0 9 7 4 6 1 0 3 -1 -3 1 3 4 1 1 9 2 3 2 -0 -1 -8 2 -5 3 -10 -5 -2 -3 2 -4 -25 -10 -1 1 -7 3 -3 2
-4 -2 -2 10 4 3 2 4 -10 -3 7 -5 -4 1 0 1 -0 -3 2 3 5 3 2 5 2 -4 -2 2 8 -8 6 -7 9 6 2 -2 -4 -6 -9 -13 3 -3 -0 -1 -1
1 -3 0 2 0 3 6 -8 3 3 4 2 -4 -3 -2 -1 -3 5 -5 4 6 5 3 8 -7 -4 8 18 12 5 7 5 8 -0 -0 -2 0 -10 -3 -3 1 1 2 4 1
3 -5 4 1 3 2 -12 1 -4 1 -0 -1 -2 -4 -9 -8 3 2 -5 -6 2 2 -1 3 6 -13 4 3 -9 3 2 8 6 6 -3 -1 -10 -24 -17 2 5 -3 2 6 3
4 -0 -4 -1 3 -0 -6 -6 5 -4 6 -1 -2 -2 -3 -3 -4 6 -7 -5 0 8 -10 -5 -1 -1 -13 -3 11 9 6 5 13 -4 0 0 -24 -3 -10 -3 -6 -0 -4 3 4
-3 -3 -1 8 -2 -6 -3 -8 -3 -1 -1 4 1 -0 -6 -0 -1 -0 -3 2 5 -1 6 4 5 -4 -5 -8 13 1 -5 0 8 8 -10 6 -9 -11 -14 -1 3 -4 -0 3 -0
4 7 1 3 6 0 3 -8 0 -4 -2 5 -6 2 5 -2 10 -3 1 -6 6 -1 1 2 1 -6 -0 -4 27 -7 12 -2 7 11 -5 -18 -8 -3 -10 -10 4 6 -5 -8 1
6 -17 -3 -7 4 1 15 3 2 -5 -2 4 -7 -7 6 -3 -5 -5 -1 -7 -4 -9 0 1 -3 4 -6 -2 -14 -8 1 13 -5 -0 -0 -6 -6 -16 -8 -3 -7 9 9 0 14
-2 -6 -5 -0 -4 2 6 -17 0 0 3 -3 -1 1 2 3 -11 -9 9 11 2 2 13 -1 -8 -1 -32 4 4 -8 -2 3 16 15 -6 6 -5 -11 -2 7 -2 8 7 -1 -2
4 5 9 -6 -0 10 -12 -11 -17 13 2 3 1 8 -6 -3 23 -1 7 -4 -7 -3 6 -4 9 14 -8 5 -7 -2 -38 -0 7 4 5 -4 1 -4 -3 0 -3 1 -9 -3 -3
Height
3122 3121 3120 3120 3119 3118 3118 3116 3113 3114 3114 3114 3114 3114 3114 3115 3114 3115 3114 3114 3114 3113 3113 3111 3111 3111 3112 3112 3112 3112 3111 3109 3110 3111 3110 3109 3106 3106 3105 3102 3101 3098 3095 3092 3089
3116 3115 3115 3114 3114 3113 3112 3111 3109 3107 3108 3108 3108 3109 3109 3110 3111 3110 3110 3109 3109 3109 3109 3109 3108 3109 3110 3109 3109 3109 3108 3106 3107 3107 3107 3106 3105 3103 3102 3100 3098 3095 3093 3089 3086
3110 3110 3109 3109 3108 3107 3106 3105 3103 3102 3101 3102 3102 3103 3103 3106 3106 3104 3104 3104 3104 3105 3106 3107 3106 3106 3106 3107 3107 3106 3105 3106 3105 3104 3103 3103 3102 3101 3099 3097 3095 3092 3089 3086 3083
3105 3104 3105 3104 3103 3101 3099 3098 3099 3097 3095 3095 3095 3097 3097 3101 3105 3101 3100 3100 3100 3102 3102 3103 3103 3102 3103 3103 3104 3102 3103 3103 3102 3102 3100 3100 3099 3097 3095 3094 3091 3089 3086 3084 3081
3100 3098 3098 3098 3097 3095 3094 3093 3092 3092 3090 3089 3088 3091 3091 3093 3099 3095 3098 3098 3098 3099 3099 3099 3100 3099 3098 3098 3099 3097 3099 3099 3099 3098 3098 3096 3096 3094 3091 3090 3088 3085 3083 3081 3078
3093 3092 3092 3091 3089 3089 3089 3089 3087 3085 3084 3083 3083 3084 3083 3084 3091 3089 3092 3093 3093 3093 3094 3095 3096 3096 3094 3094 3094 3095 3094 3094 3094 3094 3094 3093 3093 3091 3089 3088 3086 3084 3081 3078 3075
3088 3086 3085 3083 3082 3082 3082 3082 3081 3078 3078 3078 3077 3074 3073 3082 3081 3081 3085 3086 3087 3087 3088 3089 3090 3091 3089 3090 3090 3090 3089 3089 3090 3089 3088 3089 3088 3086 3087 3085 3083 3081 3078 3075 3072
3082 3081 3080 3078 3076 3075 3074 3074 3072 3072 3071 3070 3070 3067 3062 3075 3073 3075 3075 3078 3081 3082 3084 3084 3084 3085 3085 3087 3086 3086 3087 3086 3086 3086 3086 3086 3082 3084 3082 3082 3081 3078 3075 3072 3070
3076 3073 3073 3072 3070 3068 3068 3068 3065 3065 3064 3062 3063 3062 3061 3066 3065 3064 3066 3069 3071 3075 3077 3078 3079 3080 3082 3081 3083 3081 3081 3083 3082 3084 3084 3082 3079 3081 3079 3079 3077 3075 3072 3070 3068
3070 3069 3068 3066 3064 3061 3063 3063 3061 3058 3058 3055 3054 3060 3059 3061 3059 3059 3060 3062 3063 3067 3071 3071 3073 3073 3076 3074 3072 3074 3078 3080 3080 3082 3081 3079 3077 3077 3077 3075 3074 3072 3070 3070 3068
3063 3064 3062 3061 3060 3057 3056 3059 3059 3053 3050 3050 3048 3049 3052 3056 3055 3055 3057 3058 3059 3061 3062 3065 3064 3061 3066 3069 3072 3074 3075 3076 3076 3078 3077 3076 3073 3072 3073 3072 3071 3069 3068 3067 3066
3056 3057 3057 3056 3057 3054 3052 3052 3050 3046 3038 3044 3042 3039 3045 3049 3046 3051 3052 3055 3054 3055 3058 3059 3051 3061 3064 3067 3070 3070 3072 3071 3073 3076 3074 3073 3069 3069 3068 3069 3068 3067 3066 3065 3065
3050 3051 3051 3051 3052 3052 3049 3050 3047 3043 3036 3034 3036 3035 3036 3037 3034 3040 3048 3048 3048 3050 3050 3050 3053 3057 3059 3061 3066 3065 3066 3067 3070 3071 3070 3068 3065 3064 3064 3065 3066 3065 3063 3062 3063
3044 3044 3045 3046 3050 3048 3047 3046 3045 3042 3036 3031 3028 3026 3027 3026 3025 3031 3034 3039 3040 3040 3047 3045 3048 3053 3053 3055 3061 3060 3062 3066 3067 3068 3069 3066 3061 3061 3061 3060 3061 3061 3060 3060 3060
3036 3037 3038 3038 3043 3044 3046 3044 3044 3044 3042 3031 3026 3024 3023 3026 3025 3025 3025 3026 3029 3034 3041 3036 3041 3046 3048 3051 3054 3056 3059 3062 3064 3063 3063 3062 3063 3053 3055 3055 3056 3057 3058 3057 3059
3029 3030 3031 3033 3036 3039 3041 3041 3043 3048 3034 3026 3023 3023 3022 3021 3023 3023 3023 3023 3024 3029 3033 3035 3039 3041 3042 3047 3050 3055 3057 3059 3059 3060 3055 3055 3058 3049 3050 3050 3049 3052 3053 3054 3055
3022 3023 3023 3026 3031 3033 3037 3039 3044 3038 3027 3024 3021 3022 3020 3020 3021 3022 3020 3022 3023 3025 3027 3033 3031 3035 3039 3043 3045 3050 3054 3056 3057 3056 3048 3049 3051 3045 3046 3047 3047 3048 3050 3051 3053
3013 3014 3016 3020 3024 3026 3031 3035 3033 3022 3022 3020 3020 3020 3021 3019 3019 3020 3020 3021 3023 3024 3025 3024 3024 3028 3031 3035 3040 3041 3045 3047 3051 3051 3046 3045 3041 3041 3044 3043 3043 3044 3046 3048 3049
3005 3006 3009 3015 3017 3019 3025 3023 3018 3018 3020 3019 3020 3019 3019 3019 3019 3019 3020 3021 3021 3021 3024 3022 3018 3020 3023 3029 3036 3037 3038 3045 3044 3044 3045 3039 3036 3038 3039 3039 3040 3040 3042 3045 3047
2999 3000 3002 3008 3009 3012 3015 3011 3012 3015 3016 3017 3018 3020 3018 3017 3019 3020 3021 3021 3021 3019 3019 3019 3017 3019 3022 3024 3026 3028 3036 3039 3039 3041 3042 3034 3033 3034 3037 3036 3038 3038 3039 3041 3044
2993 2993 2997 3002 3004 3004 3002 3003 3005 3010 3014 3017 3016 3017 3017 3018 3017 3017 3019 3020 3018 3018 3017 3017 3017 3017 3018 3017 3020 3023 3024 3029 3031 3031 3029 3032 3028 3032 3034 3033 3036 3037 3039 3040 3041
2987 2989 2991 2997 2999 2995 2995 2998 3002 3004 3010 3011 3011 3013 3014 3016 3014 3014 3014 3015 3017 3017 3015 3016 3014 3011 3010 3014 3016 3018 3019 3022 3024 3023 3024 3024 3022 3028 3031 3031 3032 3034 3037 3039 3040
2980 2983 2986 2990 2988 2989 2991 2992 2996 3000 3004 3005 3006 3008 3008 3010 3011 3007 3008 3011 3011 3012 3013 3014 3012 3009 3005 3009 3010 3012 3014 3017 3019 3021 3015 3022 3016 3025 3028 3030 3031 3032 3034 3036 3038
2976 2977 2980 2981 2982 2984 2986 2987 2990 2994 2996 2999 3000 3004 3005 3005 3005 3003 3004 3007 3009 3009 3010 3012 3009 3010 3009 3007 3008 3006 3007 3010 3013 3012 3009 3005 3014 3021 3024 3026 3029 3030 3031 3034 3035
2967 2966 2971 2971 2973 2975 2980 2982 2984 2987 2991 2994 2993 2994 2999 2999 2998 2998 3000 3003 3003 3005 3005 3007 3001 3004 3003 3004 3004 2996 2998 3001 3001 3001 3004 3005 3009 3015 3019 3021 3024 3026 3027 3029 3031
2957 2959 2964 2965 2969 2972 2973 2974 2978 2982 2987 2988 2989 2991 2993 2993 2995 2994 2997 2999 2998 3000 3001 3000 2996 2997 2995 2997 2995 2991 2991 2993 2993 2994 2997 3000 3002 3008 3012 3015 3017 3019 3021 3023 3025
2949 2952 2958 2956 2961 2965 2963 2968 2971 2979 2979 2982 2985 2988 2988 2989 2991 2990 2991 2992 2993 2993 2995 2995 2994 2992 2986 2990 2987 2984 2974 2981 2986 2989 2991 2994 2999 3001 3004 3007 3011 3013 3014 3016 3018